2023/02/07 00:00:00,126.5, 0.5
2023/02/07 00:10:00,126.4, 0.5
2023/02/07 00:20:00,126.3, 0.4
2023/02/07 00:30:00,126.3, 0.5
2023/02/07 00:40:00,126.2, 0.8
2023/02/07 00:50:00,126.2, 0.7
2023/02/07 01:00:00,126.2, 0.4
2023/02/07 01:10:00,126.1, 0.5
2023/02/07 01:20:00,126.1, 0.7
2023/02/07 01:30:00,126.1, 0.6
2023/02/07 01:40:00,126.1, 0.4
2023/02/07 01:50:00,126.1, 0.6
2023/02/07 02:00:00,126.1, 0.6
2023/02/07 02:10:00,126.0, 0.6
2023/02/07 02:20:00,126.0, 0.6
2023/02/07 02:30:00,126.0, 0.5
2023/02/07 02:40:00,125.9, 0.6
2023/02/07 02:50:00,125.9, 0.6
2023/02/07 03:00:00,125.9, 0.5
2023/02/07 03:10:00,125.9, 0.4
2023/02/07 03:20:00,125.9, 0.5
2023/02/07 03:30:00,126.0, 0.5
2023/02/07 03:40:00,125.9, 0.6
2023/02/07 03:50:00,125.9, 0.4
2023/02/07 04:00:00,125.9, 0.5
2023/02/07 04:10:00,125.6, 0.4
2023/02/07 04:20:00,125.5, 0.4
2023/02/07 04:30:00,125.5,-0.2
2023/02/07 04:40:00,125.5, 0.3
2023/02/07 04:50:00,125.5, 0.5
2023/02/07 05:00:00,125.4, 0.2
2023/02/07 05:10:00,125.3, 0.4
2023/02/07 05:20:00,125.3, 0.4
2023/02/07 05:30:00,125.2,-0.3
2023/02/07 05:40:00,125.1, 0.5
2023/02/07 05:50:00,125.0, 0.6
2023/02/07 06:00:00,125.0, 0.4
2023/02/07 06:10:00,124.9, 0.8
2023/02/07 06:20:00,124.9, 0.7
2023/02/07 06:30:00,124.9, 1.1
2023/02/07 06:40:00,124.9, 0.4
2023/02/07 06:50:00,124.9, 0.8
2023/02/07 07:00:00,124.8, 0.6
2023/02/07 07:10:00,124.7, 0.4
2023/02/07 07:20:00,124.6, 0.7
2023/02/07 07:30:00,124.6, 0.7
2023/02/07 07:40:00,124.6, 0.7
2023/02/07 07:50:00,124.6, 0.8
2023/02/07 08:00:00,124.6, 1.1
2023/02/07 08:10:00,124.6, 0.9
2023/02/07 08:20:00,124.6, 1.0
2023/02/07 08:30:00,124.5, 1.0
2023/02/07 08:40:00,124.5, 1.3
2023/02/07 08:50:00,124.3, 1.2
2023/02/07 09:00:00,124.3, 1.5
2023/02/07 09:10:00,124.3, 1.5
2023/02/07 09:20:00,124.3, 2.4
2023/02/07 09:30:00,124.3, 2.7
2023/02/07 09:40:00,124.3, 3.1
2023/02/07 09:50:00,124.3, 3.7
2023/02/07 10:00:00,124.2, 3.7
2023/02/07 10:10:00,124.2, 3.8
2023/02/07 10:20:00,124.1, 4.2
2023/02/07 10:30:00,123.8, 4.4
2023/02/07 10:40:00,123.5, 4.9
2023/02/07 10:50:00,123.3, 5.4
2023/02/07 11:00:00,123.3, 5.1
2023/02/07 11:10:00,123.0, 5.2
2023/02/07 11:20:00,122.4, 5.8
2023/02/07 11:30:00,123.0, 5.4
2023/02/07 11:40:00,123.1, 5.7
2023/02/07 11:50:00,123.0, 5.7
2023/02/07 12:00:00,122.6, 5.7
2023/02/07 12:10:00,122.2, 5.2
2023/02/07 12:20:00,122.1, 5.7
2023/02/07 12:30:00,122.3, 5.5
2023/02/07 12:40:00,122.4, 5.3
2023/02/07 12:50:00,122.5, 5.0
2023/02/07 13:00:00,122.6, 5.1
2023/02/07 13:10:00,122.4, 4.7
2023/02/07 13:20:00,122.3, 5.0
2023/02/07 13:30:00,121.9, 5.0
2023/02/07 13:40:00,121.5, 4.9
2023/02/07 13:50:00,121.3, 5.7
2023/02/07 14:00:00,121.2, 5.5
2023/02/07 14:10:00,120.9, 5.3
2023/02/07 14:20:00,120.7, 4.8
2023/02/07 14:30:00,120.5, 4.6
2023/02/07 14:40:00,120.7, 4.6
2023/02/07 14:50:00,120.8, 4.3
2023/02/07 15:00:00,120.8, 4.2
2023/02/07 15:10:00,120.8, 4.1
2023/02/07 15:20:00,120.8, 3.8
2023/02/07 15:30:00,120.4, 4.0
2023/02/07 15:40:00,120.2, 3.7
2023/02/07 15:50:00,120.1, 3.2
2023/02/07 16:00:00,120.4, 3.1
2023/02/07 16:10:00,120.4, 3.1
2023/02/07 16:20:00,120.4, 2.5
2023/02/07 16:30:00,120.3, 2.7
2023/02/07 16:40:00,120.3, 2.7
2023/02/07 16:50:00,120.3, 2.3
2023/02/07 17:00:00,120.3, 2.4
2023/02/07 17:10:00,120.2, 2.2
2023/02/07 17:20:00,120.1, 1.8
2023/02/07 17:30:00,120.1, 1.8
2023/02/07 17:40:00,120.1, 1.8
2023/02/07 17:50:00,120.0, 1.5
2023/02/07 18:00:00,119.8, 1.5
2023/02/07 18:10:00,119.6, 1.4
2023/02/07 18:20:00,119.6, 1.6
2023/02/07 18:30:00,119.5, 1.8
2023/02/07 18:40:00,119.5, 1.4
2023/02/07 18:50:00,119.7, 1.1
2023/02/07 19:00:00,119.7, 2.2
2023/02/07 19:10:00,119.5, 1.5
2023/02/07 19:20:00,119.5, 1.3
2023/02/07 19:30:00,119.5, 0.7
2023/02/07 19:40:00,119.4, 1.2
2023/02/07 19:50:00,119.0, 1.3
2023/02/07 20:00:00,119.0, 1.1
2023/02/07 20:10:00,119.1, 1.1
2023/02/07 20:20:00,119.0, 1.2
2023/02/07 20:30:00,118.9, 1.3
2023/02/07 20:40:00,119.0, 1.1
2023/02/07 20:50:00,118.9, 1.1
2023/02/07 21:00:00,118.8, 1.2
2023/02/07 21:10:00,118.6, 1.0
2023/02/07 21:20:00,118.5, 1.1
2023/02/07 21:30:00,118.5, 0.8
2023/02/07 21:40:00,118.3, 0.8
2023/02/07 21:50:00,118.3, 0.8
2023/02/07 22:00:00,118.4, 0.7
2023/02/07 22:10:00,118.3, 1.1
2023/02/07 22:20:00,118.3, 1.2
2023/02/07 22:30:00,118.2, 0.6
2023/02/07 22:40:00,118.1, 0.8
2023/02/07 22:50:00,118.3, 0.7
2023/02/07 23:00:00,118.4, 0.9
2023/02/07 23:10:00,118.4, 0.8
2023/02/07 23:20:00,118.3, 0.8
2023/02/07 23:30:00,118.3, 0.7
2023/02/07 23:40:00,118.2, 0.7
2023/02/07 23:50:00,118.1, 0.2
